Lid_Strength_Index
5 6 6 6 5 5 4 6 10 3 2 8 8 11 10 8 8 7 9 9 10 12 11 12 12 13 11 9 9 12 11 12 16 13 12 13 13 13 13 16 16 16 16 16
5 6 6 6 5 4 7 8 8 2 2 12 11 9 9 8 9 9 9 10 9 9 11 14 12 11 8 7 9 11 10 14 18 16 13 13 14 12 11 12 14 17 19 17
5 5 5 5 5 5 7 8 12 7 5 6 9 10 10 10 7 8 8 9 8 10 12 10 12 12 9 9 9 7 8 13 15 18 15 13 14 13 12 13 17 17 16 15
5 5 5 5 5 4 8 11 12 9 13 10 9 9 9 11 11 8 8 10 10 11 13 12 13 11 10 10 8 9 10 14 13 12 12 13 13 13 13 14 13 16 14 14
5 5 5 5 5 4 10 13 12 11 11 11 11 10 10 10 9 9 10 10 9 9 11 11 13 11 12 11 10 10 9 14 13 15 13 14 14 13 14 13 13 13 13 15
4 4 4 3 3 5 11 10 9 9 12 12 13 13 12 11 10 10 10 11 10 10 9 9 9 10 10 10 12 12 12 13 14 17 14 14 17 15 13 13 11 14 16 17
3 3 3 3 3 4 8 9 10 11 16 13 13 12 12 13 12 13 12 11 11 10 9 9 10 10 11 11 11 11 12 14 16 16 19 22 16 13 13 15 15 14 15 16
2 2 3 3 2 2 6 8 9 13 18 13 13 13 12 13 13 13 13 12 10 9 12 15 21 21 19 14 13 13 11 13 19 20 24 17 15 15 15 15 16 14 14 13
2 2 2 2 2 2 6 6 7 9 14 15 12 14 13 16 18 16 13 11 11 11 14 20 27 25 22 22 18 13 13 12 14 22 22 27 17 14 13 13 20 16 14 14
2 2 1 1 1 2 5 7 6 8 11 12 12 14 13 12 13 18 17 16 14 11 16 28 26 25 16 22 24 22 26 26 22 24 26 23 17 15 13 23 21 17 14 13
2 2 2 1 1 1 2 5 5 6 9 9 10 9 11 11 13 17 16 15 16 16 22 24 17 22 17 19 17 18 19 25 28 30 30 27 14 14 18 16 14 14 13 11
2 2 2 2 1 1 0 4 3 3 6 8 8 7 6 7 8 11 15 13 18 13 17 20 20 23 23 21 25 15 20 17 22 20 21 13 11 12 10 11 13 12 11 10
1 1 1 1 0 -0 0 2 2 3 6 7 7 8 6 5 5 5 10 14 9 11 9 13 13 17 15 22 22 18 15 13 15 15 13 12 11 10 10 10 10 10 10 10
1 1 0 0 -0 -1 -1 2 2 3 5 10 11 8 8 5 5 6 6 7 8 8 9 10 13 15 11 14 14 15 14 14 16 15 13 11 11 10 9 9 9 10 10 11
-0 -0 -0 -0 -0 -1 -0 1 1 2 5 10 13 13 9 7 6 6 6 7 8 8 10 11 13 12 11 12 12 14 12 13 15 15 11 10 10 9 9 10 10 11 12 12
-1 -1 -1 -1 -0 -0 2 6 2 1 2 7 11 9 12 9 8 8 8 8 8 8 10 11 10 9 10 13 15 12 10 10 9 10 8 8 7 9 11 12 12 12 13 12
-1 -1 -1 -1 -0 2 5 6 6 1 2 7 10 12 14 10 10 12 10 8 9 9 10 11 10 10 9 11 15 11 10 9 8 10 11 9 10 12 13 12 13 14 14 14
-1 -1 -1 -0 -0 1 4 2 1 1 4 6 11 15 18 12 15 14 10 10 9 9 10 11 11 10 9 13 11 9 8 11 13 15 14 14 14 14 14 15 15 17 17 16
-1 -0 -0 2 3 6 5 0 -0 1 4 10 11 19 21 11 12 11 13 9 13 9 12 11 11 14 15 13 9 9 16 15 18 17 16 17 18 17 17 18 18 19 18 18
-0 1 5 8 6 2 1 4 5 6 6 7 11 21 21 11 13 15 14 11 12 15 14 10 12 14 10 15 17 17 18 19 19 20 20 21 22 20 20 20 19 19 19 20
3 5 7 6 2 6 7 9 10 9 11 10 14 15 17 11 14 13 10 12 14 17 18 16 20 23 13 18 18 18 18 19 21 21 21 21 21 21 21 21 20 21 22 23
4 4 3 3 6 9 11 12 12 13 16 18 16 13 10 11 9 12 11 13 14 18 20 15 18 15 20 21 21 21 21 24 24 23 23 22 21 21 22 23 23 23 23 23
3 5 7 7 8 12 14 18 19 21 22 21 17 14 11 11 9 11 12 15 17 21 18 18 19 21 24 25 24 24 24 25 25 25 24 23 24 23 24 25 24 24 25 25
7 9 12 12 13 15 18 20 21 17 18 19 17 15 12 13 12 11 15 15 15 17 18 22 23 27 29 27 25 29 28 29 27 27 26 26 26 25 25 26 26 26 27 26
8 10 14 13 22 25 29 30 21 18 16 14 15 17 10 16 13 11 14 17 17 17 19 22 28 27 26 26 29 32 31 29 29 29 30 28 27 28 28 27 28 28 26 25
7 11 15 23 21 27 27 29 25 20 14 17 15 16 13 14 12 13 15 17 21 19 28 29 26 26 27 31 33 32 31 32 32 31 31 29 29 29 28 27 28 27 25 24
13 18 22 20 17 18 25 25 21 16 17 20 15 15 16 13 16 19 20 20 23 29 28 27 28 30 33 34 35 34 34 33 33 35 33 32 31 31 32 30 29 26 24 23